Date String (YYYY-MM-DD hh:mm:ss) UTC,Instrument flags,Ambient pressure (hPa),Sample flow (lpm),Bypass flow (lpm),Sample temperature (°C),Ambient temperature (°C),ASC tube jacket temperature (°C),LED temperature (°C),Box temperature (°C),Sample RH (%),Span deviation,Mass concentration (μg/m³),Mass concentration (μg/m³),Mass concentration (μg/m³)
DateTimeUTC,F1_M11,P_M11,Q1_M11,Q2_M11,T1_M11,T2_M11,T3_M11,T4_M11,T5_M11,U1_M11,ZSPAN_M11,X0_M11,X2_M11,X1_M11
2022-03-07 16:00:00,,0829.8,5.01,0.00,22.7,22.7,00.0,31.6,24.5,07.2,0000.2,0010.40,0007.48,0007.09
2022-03-07 16:01:00,,0829.8,5.00,0.00,22.8,23.5,00.0,31.6,24.8,07.2,0000.3,0010.83,0007.45,0007.07
2022-03-07 16:02:00,,0829.8,4.99,0.00,22.9,23.4,00.0,31.6,24.9,07.1,0000.4,0010.88,0007.44,0007.05
2022-03-07 16:03:00,,0829.8,5.01,0.00,22.9,23.2,00.0,31.7,24.9,07.1,0001.2,0010.81,0007.41,0007.02
2022-03-07 16:04:00,,0829.8,4.99,0.00,23.0,23.1,00.0,31.7,24.9,07.1,0001.2,0010.70,0007.37,0007.00
2022-03-07 16:05:00,,0829.8,4.99,0.00,23.0,22.9,00.0,31.7,24.8,07.0,0000.6,0010.55,0007.32,0006.97
2022-03-07 16:06:00,,0829.8,5.01,0.00,23.0,22.8,00.0,31.7,24.8,07.0,0000.7,0010.39,0007.29,0006.96
2022-03-07 16:07:00,,0829.8,4.99,0.00,23.0,22.7,00.0,31.8,24.8,07.0,0001.0,0010.34,0007.27,0006.94
2022-03-07 16:08:00,,0829.8,4.99,0.00,23.0,22.6,00.0,31.8,24.8,07.0,0000.8,0010.32,0007.26,0006.93
2022-03-07 16:09:00,,0829.8,5.02,0.00,23.0,22.6,00.0,31.8,24.8,06.9,0000.5,0010.30,0007.25,0006.91
2022-03-07 16:10:00,,0829.8,5.00,0.00,23.0,22.5,00.0,31.8,24.8,06.9,0000.1,0010.30,0007.22,0006.88
2022-03-07 16:11:00,,0829.8,4.99,0.00,23.0,22.5,00.0,31.8,24.8,07.0,0000.9,0010.04,0007.19,0006.86
2022-03-07 16:12:00,,0829.8,5.00,0.00,23.0,22.4,00.0,31.8,24.8,07.0,0000.9,0009.56,0007.19,0006.86
2022-03-07 16:13:00,,0829.7,4.99,0.00,23.0,22.4,00.0,31.8,24.8,07.0,0001.4,0009.53,0007.17,0006.85
2022-03-07 16:14:00,,0829.8,5.00,0.00,23.0,22.4,00.0,31.8,24.8,07.0,0001.4,0009.47,0007.14,0006.84
2022-03-07 16:15:00,,0829.8,5.00,0.00,23.0,22.3,00.0,31.8,24.8,06.9,0001.9,0009.46,0007.13,0006.83
2022-03-07 16:16:00,,0829.8,5.00,0.00,23.0,22.3,00.0,31.8,24.8,06.8,0001.5,0009.49,0007.13,0006.82
2022-03-07 16:17:00,,0829.7,5.00,0.00,23.0,22.3,00.0,31.8,24.8,06.9,0001.1,0009.46,0007.11,0006.79
2022-03-07 16:18:00,,0829.8,5.00,0.00,23.0,22.3,00.0,31.9,24.8,06.9,0000.9,0009.43,0007.09,0006.78
2022-03-07 16:19:00,,0829.7,4.99,0.00,23.0,22.3,00.0,31.9,24.8,06.9,0001.0,0009.57,0007.08,0006.78
2022-03-07 16:20:00,,0829.8,5.00,0.00,23.0,22.3,00.0,31.9,24.8,06.9,0001.0,0009.59,0007.07,0006.78
2022-03-07 16:21:00,,0829.7,5.00,0.00,23.0,22.3,00.0,31.9,24.8,06.8,0000.9,0009.55,0007.06,0006.78
2022-03-07 16:22:00,,0829.7,5.00,0.00,23.0,22.3,00.0,31.9,24.8,06.8,0000.7,0009.49,0007.05,0006.79
2022-03-07 16:23:00,,0829.7,5.00,0.00,23.0,22.3,00.0,31.9,24.8,06.8,0000.7,0009.51,0007.05,0006.79
2022-03-07 16:24:00,,0829.6,4.99,0.00,23.0,22.3,00.0,31.9,24.8,06.9,0000.6,0009.46,0007.04,0006.77
2022-03-07 16:25:00,,0829.7,5.02,0.00,23.0,22.3,00.0,31.9,24.8,06.9,0000.4,0009.53,0007.05,0006.77
2022-03-07 16:26:00,,0829.7,5.00,0.00,23.0,22.3,00.0,31.9,24.8,07.0,-000.1,0009.53,0007.04,0006.77
2022-03-07 16:27:00,,0829.6,4.99,0.00,23.0,22.3,00.0,31.9,24.8,07.1,0000.5,0009.78,0007.04,0006.77
2022-03-07 16:28:00,,0829.6,5.00,0.00,23.0,22.3,00.0,31.9,24.8,07.0,0000.6,0010.23,0007.05,0006.78
2022-03-07 16:29:00,,0829.6,5.00,0.00,23.0,22.3,00.0,31.9,24.8,07.0,0001.1,0010.26,0007.07,0006.78
2022-03-07 16:30:00,,0829.6,5.00,0.00,23.0,22.3,00.0,31.9,24.8,07.2,0001.3,0010.26,0007.07,0006.78
2022-03-07 16:31:00,,0829.6,5.00,0.00,23.0,22.3,00.0,31.9,24.8,07.2,0001.8,0010.19,0007.04,0006.77
2022-03-07 16:32:00,,0829.6,5.02,0.00,23.1,22.3,00.0,31.9,24.9,07.0,0001.8,0010.19,0007.03,0006.76
2022-03-07 16:33:00,,0829.6,4.99,0.00,23.1,22.3,00.0,31.9,24.9,06.9,0001.6,0010.19,0007.01,0006.74
2022-03-07 16:34:00,,0829.6,5.00,0.00,23.1,22.3,00.0,31.9,24.9,07.0,0001.0,0010.15,0006.98,0006.72
2022-03-07 16:35:00,,0829.5,5.00,0.00,23.1,22.3,00.0,31.9,24.8,07.1,0000.7,0010.13,0006.97,0006.71
2022-03-07 16:36:00,,0829.6,5.00,0.00,23.1,22.3,00.0,31.9,24.9,07.0,0000.4,0010.02,0006.93,0006.69
2022-03-07 16:37:00,,0829.6,5.01,0.00,23.1,22.3,00.0,32.0,24.9,07.1,0001.0,0009.97,0006.91,0006.68
2022-03-07 16:38:00,,0829.5,5.00,0.00,23.1,22.3,00.0,32.0,24.9,07.2,0000.3,0009.61,0006.90,0006.67
2022-03-07 16:39:00,,0829.5,5.00,0.00,23.1,22.3,00.0,32.0,24.9,07.3,0000.4,0009.12,0006.86,0006.66
2022-03-07 16:40:00,,0829.5,5.01,0.00,23.1,22.3,00.0,32.0,24.9,07.2,0000.1,0009.10,0006.86,0006.66
2022-03-07 16:41:00,,0829.6,4.99,0.00,23.1,22.3,00.0,32.0,24.9,07.2,-000.1,0008.91,0006.84,0006.66
2022-03-07 16:42:00,,0829.6,4.99,0.00,23.1,22.3,00.0,32.0,24.9,07.4,0000.3,0009.03,0006.88,0006.65
2022-03-07 16:43:00,,0829.5,5.00,0.00,23.1,22.4,00.0,32.0,24.9,07.5,0000.3,0009.02,0006.89,0006.65
2022-03-07 16:44:00,,0829.5,5.00,0.00,23.1,22.3,00.0,32.0,24.9,07.4,0000.5,0009.36,0006.90,0006.68
2022-03-07 16:45:00,,0829.5,5.00,0.00,23.1,22.4,00.0,32.0,24.9,07.5,0001.0,0009.62,0006.95,0006.72
2022-03-07 16:46:00,,0829.5,5.00,0.00,23.1,22.4,00.0,32.0,24.9,07.8,0001.1,0010.04,0007.01,0006.75
2022-03-07 16:47:00,,0829.5,4.99,0.00,23.1,22.3,00.0,32.0,24.9,08.0,0001.1,0010.66,0007.09,0006.80
2022-03-07 16:48:00,,0829.5,5.00,0.00,23.1,22.3,00.0,32.0,24.9,07.8,0000.7,0010.73,0007.13,0006.84
2022-03-07 16:49:00,,0829.5,5.01,0.00,23.1,22.3,00.0,32.0,24.9,08.0,0001.2,0010.85,0007.18,0006.86
2022-03-07 16:50:00,,0829.5,5.00,0.00,23.1,22.3,00.0,32.0,24.9,07.9,0000.7,0010.92,0007.22,0006.88
2022-03-07 16:51:00,,0829.5,5.00,0.00,23.1,22.2,00.0,32.0,24.9,07.8,0001.1,0010.96,0007.25,0006.92
2022-03-07 16:52:00,,0829.5,5.00,0.00,23.1,22.2,00.0,32.0,24.9,08.0,0001.1,0011.03,0007.28,0006.93
2022-03-07 16:53:00,,0829.5,4.99,0.00,23.1,22.2,00.0,32.0,24.8,07.8,0000.6,0011.02,0007.30,0006.96
2022-03-07 16:54:00,,0829.5,5.00,0.00,23.1,22.2,00.0,32.0,24.8,08.0,0001.0,0011.07,0007.32,0006.99
2022-03-07 16:55:00,,0829.5,5.00,0.00,23.1,22.2,00.0,32.0,24.9,08.1,0001.4,0010.70,0007.32,0006.99
2022-03-07 16:56:00,,0829.5,5.00,0.00,23.1,22.3,00.0,32.0,24.9,08.0,0001.4,0010.56,0007.32,0007.00
2022-03-07 16:57:00,,0829.5,5.00,0.00,23.1,22.3,00.0,32.0,24.9,08.1,0001.5,0010.38,0007.32,0007.02
2022-03-07 16:58:00,,0829.5,5.00,0.00,23.1,22.3,00.0,32.0,24.9,08.0,0002.0,0009.86,0007.31,0007.03
2022-03-07 16:59:00,,0829.5,4.99,0.00,23.1,22.3,00.0,32.0,24.9,07.8,0001.9,0010.03,0007.30,0007.02
